Flag for Germany Weather past 2 weeks in Halle, Saxony-Anhalt, Germany

Now
64 °F

Partly sunny.


Feels Like: 64 °F
Forecast: 65 / 93 °F
Wind: 8 mph from North

Location: Leipzig-Schkeuditz

Current Time: Aug 5, 2015 at 9:15:28 AM

Latest Report: Aug 5, 2015 at 8:50 AM


Visibility: N/A

Pressure: 30.12 "Hg

Humidity: 73%

Dew point: 55 °F

Location of HalleLocation

Historic Weather in Halle — Graph

°F

Halle temperature yesterday

Maximum temperature yesterday: 93 °F (at 3:50 PM)
Minimum temperature yesterday: 64 °F (at 5:50 AM)
Average temperature yesterday: 78 °F

Past Weeks' High & Low Weather Summary

 TemperatureHumidityPressure
High93 °F (Aug 4, 3:50 PM)100% (Jul 23, 1:50 AM)30.12 "Hg (Jul 23, 1:50 AM)
Low48 °F (Jul 31, 3:50 AM)25% (Aug 2, 4:50 PM)29.59 "Hg (Jul 25, 3:50 AM)
Average68 °F61%29.90 "Hg
* Reported Jul 21 8:20 AM — Aug 5 8:20 AM, Halle, Weather by CustomWeather, © 2015

Note: Actual official high and low records may vary slightly from our data, if they occured in-between our weather recording intervals... More about our weather records

Advertising

Halle weather history for previous 24 hours

 ConditionsComfort  
Time TempWeatherWind HumidityBarometerVisibility
8:20 AM
Wed, Aug 5
63 °FPartly sunny.8 mph77%30.12 "HgN/A
7:50 AM63 °FPartly sunny.7 mph83%30.12 "HgN/A
7:20 AM63 °FPartly sunny.8 mph83%30.12 "HgN/A
6:20 AM63 °FPassing clouds.8 mph83%30.09 "HgN/A
5:50 AM63 °FPassing clouds.8 mph83%30.09 "HgN/A
5:20 AM63 °FPassing clouds.8 mph83%30.09 "HgN/A
4:50 AM63 °FPassing clouds.9 mph83%30.09 "HgN/A
4:20 AM63 °FOvercast.8 mph88%30.09 "HgN/A
3:50 AM63 °FOvercast.10 mph88%30.09 "HgN/A
3:20 AM63 °FPassing clouds.13 mph94%30.07 "HgN/A
2:50 AM64 °FPassing clouds.12 mph83%30.07 "HgN/A
2:20 AM64 °FPassing clouds.12 mph88%30.07 "HgN/A
1:50 AM64 °FClear.7 mph94%30.04 "Hg10 mi
1:20 AM64 °FClear.9 mph94%30.04 "Hg10 mi
12:50 AM66 °FClear.8 mph88%30.04 "Hg10 mi
12:20 AM66 °FClear.7 mph88%30.04 "Hg10 mi
11:50 PM
Tue, Aug 4
66 °FClear.7 mph94%30.04 "Hg10 mi
11:20 PM68 °FClear.7 mph88%30.01 "Hg10 mi
10:50 PM68 °FClear.6 mph88%30.01 "Hg10 mi
10:20 PM68 °FClear.7 mph88%30.01 "Hg10 mi
9:50 PM70 °FPartly sunny.12 mph78%29.98 "HgN/A
9:20 PM72 °FSprinkles. Partly sunny.15 mph73%29.98 "HgN/A
8:50 PM75 °FPartly sunny.18 mph61%29.95 "HgN/A
8:20 PM77 °FSunny.15 mph57%29.95 "Hg10 mi
7:50 PM79 °FSunny.15 mph51%29.92 "Hg10 mi
7:20 PM79 °FBroken clouds.16 mph51%29.89 "HgN/A
6:50 PM84 °FBroken clouds.23 mph40%29.86 "HgN/A
6:20 PM91 °FBroken clouds.7 mph28%29.83 "HgN/A
5:50 PM91 °FBroken clouds.8 mph30%29.83 "HgN/A
5:20 PM91 °FSunny.8 mph28%29.83 "Hg10 mi
4:50 PM91 °FPassing clouds.10 mph28%29.83 "HgN/A
4:20 PM93 °FPassing clouds.15 mph28%29.83 "HgN/A
3:50 PM93 °FSunny.13 mph26%29.86 "Hg10 mi
3:20 PM91 °FPassing clouds.7 mph30%29.86 "HgN/A
2:50 PM91 °FSunny.9 mph32%29.86 "Hg10 mi
2:20 PM90 °FSunny.6 mph33%29.86 "Hg10 mi
1:50 PM91 °FSunny.10 mph34%29.86 "Hg10 mi
1:20 PM90 °FSunny.12 mph38%29.89 "Hg10 mi
12:50 PM90 °FSunny.13 mph38%29.89 "Hg10 mi
12:20 PM88 °FSunny.10 mph38%29.89 "Hg10 mi
11:50 AM88 °FSunny.9 mph40%29.89 "Hg10 mi
11:20 AM86 °FSunny.9 mph40%29.92 "Hg10 mi
10:50 AM84 °FSunny.9 mph43%29.92 "Hg10 mi
10:20 AM82 °FSunny.7 mph45%29.92 "Hg10 mi
9:50 AM81 °FSunny.7 mph48%29.92 "Hg10 mi
9:20 AM79 °FSunny.7 mph51%29.95 "Hg10 mi
Weather by CustomWeather, © 2015

See weather overviewHow to use our weather pages